Weather History for KDRI - January, 2014

Change the Weather History Date:

Sunday, January 26, 2014

  Actual Average (KPOE) Record (KPOE)
Temperature  
Mean Temperature 52 °F -  
Max Temperature 67 °F 58 °F 77 °F (2005)
Min Temperature 37 °F 40 °F 32 °F (2000)
Degree Days  
Heating Degree Days 13    
Growing Degree Days 2 (Base 50)    
Moisture  
Dew Point 42 °F    
Average Humidity 72    
Maximum Humidity 93    
Minimum Humidity 33    
Precipitation  
Precipitation 0.00 in - - ()
Sea Level Pressure  
Sea Level Pressure 29.93 in    
Wind  
Wind Speed 4 mph (South)    
Max Wind Speed 17 mph    
Max Gust Speed 21 mph    
Visibility 10 miles    
Events      
Averages and records for this station are not official NWS values.
T = Trace of Precipitation, MM = Missing Value Source: NWS Daily Summary

Daily Weather History Graph

Daily Weather History Graph

Search for Another Location

Airport or City:

Trip Planner

Search our weather history database for the weather conditions in past years. The results will help you decide how hot, cold, wet, or windy it might be!

Date:

Astronomy

Jan. 26, 2014 Rise Set
Actual Time 7:08 AM CST 5:44 PM CST
Civil Twilight 6:42 AM CST 6:09 PM CST
Nautical Twilight 6:13 AM CST 6:38 PM CST
Astronomical Twilight 5:44 AM CST 7:07 PM CST
Moon 2:45 AM CST 1:35 PM CST
Length of Visible Light 11h 26m
Length of Day
10h 35m
Waning Crescent, 23% of the Moon is Illuminated
Jan 26
Waning Crescent
Jan 30
New
Feb 6
First Quarter
Feb 14
Full
Feb 22
Last Quarter

Hourly Weather History & Observations

Time (CST) Temp. Windchill Dew Point Humidity Pressure Visibility Wind Dir Wind Speed Gust Speed Precip Events Conditions
12:15 AM 38.5 °F - 35.1 °F 87% 30.05 in 10.0 mi Calm Calm - N/A   Scattered Clouds
12:35 AM 38.3 °F - 35.6 °F 90% 30.04 in 10.0 mi Calm Calm - N/A   Scattered Clouds
12:55 AM 37.9 °F 34.4 °F 34.5 °F 87% 30.04 in 10.0 mi South 4.6 mph - N/A   Scattered Clouds
1:15 AM 38.3 °F - 34.0 °F 84% 30.04 in 10.0 mi Calm Calm - N/A   Scattered Clouds
1:35 AM 38.3 °F - 34.0 °F 84% 30.03 in 10.0 mi Calm Calm - N/A   Scattered Clouds
1:55 AM 37.9 °F - 34.0 °F 86% 30.03 in 10.0 mi Calm Calm - N/A   Scattered Clouds
2:15 AM 37.9 °F - 34.0 °F 86% 30.03 in 10.0 mi Calm Calm - N/A   Scattered Clouds
2:35 AM 37.0 °F - 33.6 °F 87% 30.03 in 10.0 mi Calm Calm - N/A   Scattered Clouds
2:55 AM 37.2 °F - 34.7 °F 91% 30.03 in 10.0 mi Calm Calm - N/A   Scattered Clouds
3:15 AM 37.6 °F - 34.3 °F 88% 30.02 in 10.0 mi Calm Calm - N/A   Clear
3:35 AM 37.2 °F - 34.5 °F 90% 30.02 in 10.0 mi Calm Calm - N/A   Scattered Clouds
3:55 AM 37.2 °F - 34.5 °F 90% 30.01 in 10.0 mi Calm Calm - N/A   Scattered Clouds
4:15 AM 37.4 °F - 35.6 °F 93% 30.01 in 10.0 mi Calm Calm - N/A   Clear
4:35 AM 37.8 °F - 35.4 °F 91% 30.00 in 10.0 mi Calm Calm - N/A   Clear
4:55 AM 38.7 °F - 35.4 °F 88% 30.01 in 10.0 mi Calm Calm - N/A   Clear
5:15 AM 37.9 °F - 35.2 °F 90% 30.01 in 10.0 mi Calm Calm - N/A   Clear
5:35 AM 38.8 °F - 35.8 °F 89% 30.00 in 10.0 mi Calm Calm - N/A   Clear
5:55 AM 38.3 °F - 35.8 °F 91% 30.01 in 10.0 mi Calm Calm - N/A   Clear
6:15 AM 39.9 °F - 37.2 °F 90% 30.01 in 10.0 mi Calm Calm - N/A   Clear
6:35 AM 39.6 °F 34.7 °F 37.4 °F 92% 30.02 in 10.0 mi South 6.9 mph - N/A   Clear
6:55 AM 39.7 °F - 37.4 °F 91% 30.01 in 10.0 mi Calm Calm - N/A   Scattered Clouds
7:15 AM 39.7 °F - 37.4 °F 91% 30.01 in 10.0 mi Calm Calm - N/A   Scattered Clouds
7:35 AM 39.9 °F - 37.6 °F 91% 30.01 in 10.0 mi Calm Calm - N/A   Scattered Clouds
7:55 AM 41.0 °F 38.0 °F 38.3 °F 90% 30.00 in 10.0 mi SE 4.6 mph - N/A   Scattered Clouds
8:15 AM 41.4 °F - 39.2 °F 92% 30.01 in 10.0 mi Calm Calm - N/A   Scattered Clouds
8:35 AM 42.6 °F - 39.0 °F 87% 30.01 in 10.0 mi Calm Calm - N/A   Scattered Clouds
8:55 AM 43.7 °F - 39.7 °F 86% 30.01 in 10.0 mi Calm Calm - N/A   Clear
9:15 AM 45.0 °F 42.6 °F 40.1 °F 83% 30.00 in 10.0 mi SSE 4.6 mph - N/A   Scattered Clouds
9:35 AM 46.4 °F 45.2 °F 40.6 °F 80% 29.99 in 10.0 mi ESE 3.5 mph - N/A   Scattered Clouds
9:55 AM 47.3 °F - 41.0 °F 79% 30.00 in 10.0 mi Calm Calm - N/A   Scattered Clouds
10:15 AM 49.1 °F - 41.2 °F 74% 30.01 in 10.0 mi SSE 3.5 mph - N/A   Scattered Clouds
10:35 AM 52.0 °F - 41.2 °F 67% 29.99 in 10.0 mi Calm Calm - N/A   Scattered Clouds
10:55 AM 55.2 °F - 40.5 °F 58% 29.99 in 10.0 mi South 4.6 mph - N/A   Scattered Clouds
11:15 AM 57.0 °F - 38.1 °F 49% 29.97 in 10.0 mi South 9.2 mph - N/A   Scattered Clouds
11:35 AM 57.2 °F - 37.6 °F 48% 29.96 in 10.0 mi South 8.1 mph - N/A   Scattered Clouds
11:55 AM 59.9 °F - 37.4 °F 43% 29.95 in 10.0 mi South 11.5 mph - N/A   Scattered Clouds
12:15 PM 61.7 °F - 37.9 °F 41% 29.94 in 10.0 mi SSW 12.7 mph - N/A   Scattered Clouds
12:35 PM 63.3 °F - 36.9 °F 37% 29.93 in 10.0 mi SSW 12.7 mph 19.6 mph N/A   Scattered Clouds
12:55 PM 63.9 °F - 35.8 °F 35% 29.90 in 10.0 mi South 12.7 mph - N/A   Scattered Clouds
1:15 PM 64.8 °F - 35.1 °F 33% 29.89 in 10.0 mi SSW 10.4 mph - N/A   Scattered Clouds
1:35 PM 64.6 °F - 38.1 °F 38% 29.88 in 10.0 mi South 13.8 mph - N/A   Scattered Clouds
1:55 PM 65.5 °F - 37.0 °F 35% 29.87 in 10.0 mi SSW 17.3 mph 20.7 mph N/A   Scattered Clouds
2:15 PM 65.8 °F - 38.8 °F 37% 29.86 in 10.0 mi South 15.0 mph - N/A   Scattered Clouds
2:35 PM 66.4 °F - 39.9 °F 38% 29.85 in 10.0 mi South 17.3 mph - N/A   Scattered Clouds
2:55 PM 67.1 °F - 39.4 °F 36% 29.84 in 10.0 mi South 13.8 mph 18.4 mph N/A   Scattered Clouds
3:15 PM 66.7 °F - 39.0 °F 36% 29.83 in 10.0 mi South 16.1 mph - N/A   Scattered Clouds
3:35 PM 66.6 °F - 41.9 °F 41% 29.83 in 10.0 mi South 12.7 mph - N/A   Scattered Clouds
3:55 PM 66.4 °F - 42.8 °F 42% 29.82 in 10.0 mi South 13.8 mph 20.7 mph N/A   Scattered Clouds
4:15 PM 65.8 °F - 45.0 °F 47% 29.82 in 10.0 mi South 15.0 mph 18.4 mph N/A   Scattered Clouds
4:35 PM 65.5 °F - 45.9 °F 49% 29.81 in 10.0 mi South 12.7 mph 17.3 mph N/A   Scattered Clouds
4:55 PM 64.8 °F - 46.4 °F 51% 29.81 in 10.0 mi South 11.5 mph 16.1 mph N/A   Scattered Clouds
5:15 PM 63.5 °F - 47.3 °F 56% 29.80 in 10.0 mi South 11.5 mph - N/A   Scattered Clouds
5:35 PM 62.8 °F - 48.2 °F 59% 29.80 in 10.0 mi South 12.7 mph - N/A   Scattered Clouds
5:55 PM 61.2 °F - 48.6 °F 63% 29.81 in 10.0 mi SSE 5.8 mph - N/A   Scattered Clouds
6:15 PM 60.6 °F - 49.8 °F 68% 29.81 in 10.0 mi SSE 6.9 mph - N/A   Scattered Clouds
6:35 PM 60.1 °F - 50.4 °F 70% 29.81 in 10.0 mi SSE 6.9 mph - N/A   Scattered Clouds
6:55 PM 59.4 °F - 50.9 °F 74% 29.81 in 10.0 mi SSE 9.2 mph - N/A   Scattered Clouds
7:15 PM 58.8 °F - 50.9 °F 75% 29.82 in 10.0 mi SSE 6.9 mph - N/A   Mostly Cloudy
7:35 PM 57.9 °F - 50.9 °F 77% 29.82 in 10.0 mi SSE 6.9 mph - N/A   Mostly Cloudy
7:55 PM 57.2 °F - 50.5 °F 78% 29.82 in 10.0 mi South 9.2 mph - N/A   Mostly Cloudy
8:15 PM 56.5 °F - 50.5 °F 80% 29.83 in 10.0 mi South 6.9 mph - N/A   Mostly Cloudy
8:35 PM 56.3 °F - 50.5 °F 81% 29.84 in 10.0 mi SSE 5.8 mph - N/A   Mostly Cloudy
8:55 PM 55.8 °F - 50.9 °F 84% 29.84 in 10.0 mi SSE 5.8 mph - N/A   Mostly Cloudy
9:15 PM 56.3 °F - 50.9 °F 82% 29.85 in 10.0 mi South 5.8 mph - N/A   Overcast
9:35 PM 56.3 °F - 51.3 °F 83% 29.85 in 10.0 mi South 4.6 mph - N/A   Overcast
9:55 PM 56.3 °F - 51.6 °F 84% 29.85 in 10.0 mi SSE 5.8 mph - N/A   Overcast
10:15 PM 56.5 °F - 51.8 °F 84% 29.85 in 10.0 mi South 5.8 mph - N/A   Overcast
10:35 PM 56.5 °F - 52.0 °F 85% 29.86 in 10.0 mi SSE 5.8 mph - N/A   Overcast
10:55 PM 56.5 °F - 52.2 °F 85% 29.86 in 10.0 mi South 4.6 mph - N/A   Overcast
11:15 PM 56.7 °F - 52.7 °F 87% 29.86 in 10.0 mi Calm Calm - N/A   Overcast
11:35 PM 56.8 °F - 52.7 °F 86% 29.87 in 10.0 mi SSE 3.5 mph - N/A   Overcast
11:55 PM 57.0 °F - 52.9 °F 86% 29.86 in 10.0 mi SSE 4.6 mph - N/A   Overcast